�������l�o���
Date,Time,MP-1(��Sv/h),MP-2(��Sv/h),MP-3(��Sv/h),MP-4(��Sv/h),MP-5(��Sv/h),MP-6(��Sv/h),MP-7(��Sv/h),MP-8(��Sv/h),����,����(m/s),���J
2022/04/15,00:00,0.563,0.832,0.540,1.022,0.726,0.345,0.597,0.563,�k�k��,6.3,�L
2022/04/15,00:10,0.561,0.833,0.538,1.024,0.725,0.345,0.596,0.562,�k�k��,5.9,�L
2022/04/15,00:20,0.562,0.832,0.537,1.021,0.725,0.343,0.594,0.563,�k�k��,4.8,�L
2022/04/15,00:30,0.562,0.828,0.537,1.018,0.723,0.343,0.593,0.560,�k�k��,7.0,�L
2022/04/15,00:40,0.559,0.828,0.537,1.017,0.721,0.342,0.592,0.562,�k�k��,7.1,�L
2022/04/15,00:50,0.561,0.826,0.536,1.016,0.721,0.344,0.592,0.560,�k�k��,5.8,�L
2022/04/15,01:00,0.558,0.827,0.535,1.015,0.719,0.344,0.593,0.561,�k�k��,5.6,�L
2022/04/15,01:10,0.560,0.826,0.535,1.014,0.718,0.342,0.593,0.562,�k�k��,4.1,�L
2022/04/15,01:20,0.558,0.823,0.536,1.010,0.717,0.340,0.589,0.558,�k,3.6,�L
2022/04/15,01:30,0.554,0.816,0.532,1.003,0.711,0.339,0.590,0.558,�k�k��,7.2,�L
2022/04/15,01:40,0.551,0.813,0.533,1.003,0.712,0.341,0.589,0.558,�k�k��,5.8,�L
2022/04/15,01:50,0.555,0.815,0.532,1.005,0.713,0.340,0.590,0.559,�k�k��,6.2,�L
2022/04/15,02:00,0.552,0.817,0.532,1.006,0.712,0.340,0.589,0.558,�k�k��,5.4,�L
2022/04/15,02:10,0.553,0.817,0.533,1.006,0.713,0.341,0.590,0.558,�k�k��,5.8,�L
2022/04/15,02:20,0.555,0.814,0.531,1.003,0.713,0.341,0.588,0.559,�k�k��,6.0,�L
2022/04/15,02:30,0.552,0.814,0.529,1.001,0.710,0.339,0.589,0.558,�k�k��,6.2,�L
2022/04/15,02:40,0.552,0.816,0.532,1.002,0.713,0.340,0.589,0.557,�k�k��,6.2,�L
2022/04/15,02:50,0.555,0.815,0.532,1.005,0.712,0.340,0.590,0.557,�k�k��,6.4,�L
2022/04/15,03:00,0.554,0.817,0.529,1.002,0.709,0.340,0.588,0.558,�k��,6.3,�L
2022/04/15,03:10,0.553,0.813,0.530,0.998,0.712,0.339,0.590,0.559,�k�k��,5.8,�L
2022/04/15,03:20,0.553,0.813,0.530,0.999,0.707,0.339,0.589,0.557,�k�k��,5.5,�L
2022/04/15,03:30,0.552,0.815,0.529,0.998,0.709,0.339,0.589,0.559,�k�k��,5.0,�L
2022/04/15,03:40,0.550,0.811,0.529,0.998,0.706,0.339,0.589,0.558,�k�k��,5.7,�L
2022/04/15,03:50,0.548,0.809,0.527,0.996,0.705,0.338,0.586,0.556,�k�k��,5.0,�L
2022/04/15,04:00,0.547,0.808,0.528,0.993,0.701,0.338,0.589,0.555,�k��,4.5,�L
2022/04/15,04:10,0.548,0.806,0.526,0.989,0.699,0.338,0.585,0.554,�k�k��,5.7,�L
2022/04/15,04:20,0.546,0.806,0.529,0.992,0.700,0.338,0.586,0.555,�k�k��,4.2,�L
2022/04/15,04:30,0.548,0.807,0.527,0.992,0.699,0.338,0.584,0.557,�k�k��,5.1,�L
2022/04/15,04:40,0.549,0.810,0.530,0.994,0.701,0.339,0.587,0.555,�k�k��,6.0,�L
2022/04/15,04:50,0.552,0.812,0.528,0.995,0.704,0.339,0.586,0.556,�k�k��,5.8,��
2022/04/15,05:00,0.552,0.815,0.531,0.996,0.703,0.339,0.587,0.556,�k�k��,6.3,��
2022/04/15,05:10,0.554,0.815,0.530,0.999,0.704,0.339,0.587,0.557,�k�k��,6.2,��
2022/04/15,05:20,0.555,0.817,0.530,0.998,0.708,0.337,0.588,0.556,�k�k��,6.9,��
2022/04/15,05:30,0.555,0.817,0.531,1.000,0.706,0.339,0.589,0.558,�k�k��,7.1,��
2022/04/15,05:40,0.553,0.819,0.529,1.002,0.706,0.341,0.587,0.558,�k�k��,7.9,��
2022/04/15,05:50,0.554,0.818,0.530,1.003,0.707,0.339,0.587,0.559,�k�k��,7.5,��
2022/04/15,06:00,0.555,0.819,0.530,1.003,0.707,0.339,0.589,0.559,�k�k��,6.3,��
2022/04/15,06:10,0.554,0.820,0.530,1.003,0.708,0.339,0.588,0.557,�k�k��,6.7,��
2022/04/15,06:20,0.556,0.820,0.530,1.005,0.710,0.340,0.591,0.557,�k�k��,6.4,��
2022/04/15,06:30,0.557,0.820,0.531,1.006,0.708,0.339,0.589,0.558,�k�k��,6.7,��
2022/04/15,06:40,0.554,0.820,0.530,1.006,0.708,0.339,0.588,0.559,�k�k��,6.6,��
2022/04/15,06:50,0.557,0.820,0.532,1.007,0.709,0.339,0.589,0.559,�k�k��,6.4,��
2022/04/15,07:00,0.556,0.822,0.531,1.007,0.709,0.341,0.590,0.558,�k�k��,5.8,��
2022/04/15,07:10,0.557,0.823,0.532,1.005,0.709,0.340,0.589,0.559,�k�k��,6.0,��
2022/04/15,07:20,0.557,0.822,0.533,1.010,0.711,0.339,0.590,0.560,�k�k��,5.9,�L
2022/04/15,07:30,0.557,0.823,0.531,1.007,0.711,0.340,0.591,0.559,�k�k��,7.1,�L
2022/04/15,07:40,0.557,0.823,0.532,1.009,0.710,0.341,0.589,0.561,�k�k��,6.0,�L
2022/04/15,07:50,0.558,0.823,0.532,1.008,0.710,0.341,0.589,0.559,�k�k��,6.2,�L
2022/04/15,08:00,0.558,0.823,0.541,1.010,0.711,0.340,0.591,0.559,�k�k��,6.2,�L
2022/04/15,08:10,0.557,0.821,0.532,1.009,0.713,0.341,0.589,0.560,�k�k��,7.1,�L
2022/04/15,08:20,0.558,0.822,0.533,1.010,0.711,0.341,0.589,0.559,�k�k��,7.1,�L
2022/04/15,08:30,0.556,0.819,0.533,1.011,0.712,0.341,0.590,0.560,�k�k��,5.7,�L
2022/04/15,08:40,0.555,0.820,0.539,1.011,0.710,0.341,0.589,0.558,�k�k��,5.6,�L
2022/04/15,08:50,0.557,0.820,0.532,1.012,0.710,0.341,0.589,0.559,�k�k��,4.8,�L
2022/04/15,09:00,0.557,0.819,0.530,1.012,0.712,0.340,0.590,0.560,�k�k��,3.8,�L
2022/04/15,09:10,0.556,0.818,0.532,1.009,0.709,0.341,0.588,0.560,�k�k��,3.8,�L
2022/04/15,09:20,0.557,0.819,0.534,1.011,0.712,0.341,0.590,0.559,�k�k��,5.3,�L
2022/04/15,09:30,0.558,0.821,0.532,1.011,0.711,0.340,0.591,0.561,�k�k��,4.9,��
2022/04/15,09:40,0.557,0.821,0.532,1.011,0.711,0.340,0.591,0.561,�k�k��,5.5,�L
2022/04/15,09:50,0.558,0.820,0.532,1.011,0.713,0.340,0.591,0.561,�k�k��,5.3,�L
2022/04/15,10:00,0.558,0.820,0.533,1.012,0.713,0.341,0.590,0.560,�k�k��,4.7,�L
2022/04/15,10:10,0.557,0.822,0.531,1.013,0.713,0.341,0.590,0.561,�k�k��,4.1,�L
2022/04/15,10:20,0.557,0.820,0.533,1.012,0.711,0.340,0.588,0.561,�k�k��,3.5,�L
2022/04/15,10:30,0.558,0.822,0.532,1.010,0.711,0.340,0.591,0.560,�k�k��,4.6,�L
2022/04/15,10:40,0.558,0.820,0.533,1.013,0.713,0.342,0.590,0.561,�k�k��,6.2,�L
2022/04/15,10:50,0.560,0.823,0.532,1.012,0.712,0.341,0.589,0.560,�k�k��,6.9,�L
2022/04/15,11:00,0.559,0.821,0.532,1.013,0.710,0.340,0.590,0.560,�k�k��,7.0,�L
2022/04/15,11:10,0.557,0.821,0.533,1.012,0.711,0.342,0.590,0.560,�k�k��,6.2,�L
2022/04/15,11:20,0.557,0.819,0.532,1.013,0.710,0.341,0.589,0.559,�k,6.0,�L
2022/04/15,11:30,0.557,0.819,0.530,1.013,0.712,0.342,0.590,0.560,�k�k��,6.9,�L
2022/04/15,11:40,0.559,0.821,0.531,1.014,0.710,0.341,0.588,0.559,�k,5.6,�L
2022/04/15,11:50,0.556,0.820,0.532,1.013,0.713,0.343,0.589,0.561,�k,5.9,�L
2022/04/15,12:00,0.558,0.817,0.531,1.012,0.709,0.341,0.589,0.559,�k,4.8,�L
2022/04/15,12:10,0.557,0.817,0.530,1.010,0.709,0.342,0.588,0.560,�k,6.2,�L
2022/04/15,12:20,0.557,0.818,0.532,1.008,0.709,0.342,0.587,0.559,�k,6.8,�L
2022/04/15,12:30,0.556,0.816,0.531,1.010,0.708,0.342,0.587,0.558,�k,6.0,�L
2022/04/15,12:40,0.557,0.819,0.530,1.010,0.708,0.342,0.588,0.559,�k�k��,6.6,�L
2022/04/15,12:50,0.556,0.815,0.532,1.009,0.708,0.342,0.586,0.559,�k,5.5,�L
2022/04/15,13:00,0.556,0.815,0.530,1.006,0.706,0.341,0.586,0.557,�k�k��,5.6,�L
2022/04/15,13:10,0.555,0.814,0.531,1.007,0.706,0.340,0.586,0.558,�k,5.2,�L
2022/04/15,13:20,0.556,0.812,0.530,1.006,0.706,0.340,0.587,0.558,�k,6.8,�L
2022/04/15,13:30,0.556,0.813,0.530,1.004,0.707,0.341,0.586,0.558,�k,5.7,�L
2022/04/15,13:40,0.555,0.813,0.526,1.007,0.706,0.340,0.587,0.560,�k,5.1,�L
2022/04/15,13:50,0.554,0.811,0.528,1.004,0.703,0.340,0.586,0.556,�k�k��,7.2,�L
2022/04/15,14:00,0.553,0.809,0.528,1.004,0.703,0.340,0.586,0.556,�k�k��,6.7,�L
2022/04/15,14:10,0.554,0.811,0.530,1.003,0.699,0.342,0.586,0.558,�k�k��,6.4,�L
2022/04/15,14:20,0.552,0.810,0.531,1.002,0.700,0.340,0.584,0.557,�k,5.9,�L
2022/04/15,14:30,0.554,0.811,0.529,1.002,0.704,0.341,0.585,0.557,�k,6.4,�L
2022/04/15,14:40,0.553,0.810,0.530,1.004,0.703,0.342,0.585,0.558,�k�k��,7.0,�L
2022/04/15,14:50,0.551,0.811,0.529,1.001,0.702,0.341,0.585,0.557,�k,7.4,�L
2022/04/15,15:00,0.552,0.810,0.530,0.999,0.701,0.340,0.584,0.557,�k,7.3,�L
2022/04/15,15:10,0.553,0.811,0.527,0.999,0.700,0.340,0.586,0.557,�k�k��,8.3,�L
2022/04/15,15:20,0.552,0.810,0.528,0.997,0.699,0.339,0.583,0.556,�k,9.2,�L
2022/04/15,15:30,0.553,0.809,0.529,0.995,0.699,0.340,0.583,0.557,�k,8.3,�L
2022/04/15,15:40,0.552,0.809,0.528,0.996,0.699,0.339,0.584,0.555,�k,8.7,�L
2022/04/15,15:50,0.551,0.808,0.528,0.996,0.699,0.340,0.583,0.557,�k,8.4,�L
2022/04/15,16:00,0.548,0.808,0.526,0.995,0.698,0.339,0.584,0.555,�k,8.9,�L
2022/04/15,16:10,0.551,0.809,0.527,0.996,0.697,0.339,0.583,0.554,�k,9.0,�L
2022/04/15,16:20,0.550,0.809,0.529,0.994,0.697,0.338,0.584,0.554,�k,8.5,�L
2022/04/15,16:30,0.550,0.807,0.528,0.994,0.697,0.338,0.584,0.555,�k,9.0,�L
2022/04/15,16:40,0.551,0.808,0.528,0.994,0.697,0.337,0.583,0.556,�k,8.8,�L
2022/04/15,16:50,0.549,0.808,0.527,0.990,0.696,0.338,0.584,0.555,�k,9.5,�L
2022/04/15,17:00,0.549,0.809,0.528,0.990,0.695,0.338,0.584,0.555,�k,8.8,�L
2022/04/15,17:10,0.551,0.807,0.528,0.994,0.696,0.338,0.584,0.555,�k,8.9,�L
2022/04/15,17:20,0.553,0.806,0.526,0.992,0.696,0.338,0.585,0.557,�k,8.8,�L
2022/04/15,17:30,0.550,0.808,0.528,0.990,0.696,0.338,0.585,0.556,�k,9.4,�L
2022/04/15,17:40,0.552,0.809,0.527,0.992,0.695,0.337,0.584,0.557,�k,10.2,�L
2022/04/15,17:50,0.551,0.806,0.529,0.991,0.695,0.337,0.583,0.554,�k,8.7,�L
2022/04/15,18:00,0.551,0.808,0.528,0.993,0.697,0.338,0.585,0.554,�k,9.6,�L
2022/04/15,18:10,0.552,0.808,0.529,0.991,0.695,0.337,0.583,0.556,�k,9.0,�L
2022/04/15,18:20,0.550,0.808,0.527,0.990,0.695,0.339,0.583,0.556,�k,8.7,�L
2022/04/15,18:30,0.550,0.804,0.529,0.988,0.693,0.339,0.583,0.556,�k,9.0,�L
2022/04/15,18:40,0.549,0.805,0.526,0.990,0.694,0.339,0.583,0.556,�k,8.8,�L
2022/04/15,18:50,0.548,0.804,0.527,0.987,0.693,0.338,0.583,0.555,�k,7.8,�L
2022/04/15,19:00,0.551,0.806,0.529,0.989,0.693,0.340,0.584,0.556,�k,8.3,�L
2022/04/15,19:10,0.551,0.807,0.529,0.989,0.694,0.340,0.584,0.555,�k,7.2,�L
2022/04/15,19:20,0.552,0.806,0.529,0.993,0.692,0.339,0.584,0.556,�k,8.5,�L
2022/04/15,19:30,0.551,0.809,0.528,0.991,0.694,0.341,0.582,0.556,�k,8.0,�L
2022/04/15,19:40,0.552,0.810,0.528,0.992,0.695,0.340,0.584,0.556,�k,7.4,�L
2022/04/15,19:50,0.551,0.807,0.528,0.989,0.694,0.341,0.585,0.557,�k,8.8,�L
2022/04/15,20:00,0.551,0.807,0.529,0.990,0.694,0.341,0.583,0.556,�k,9.6,�L
2022/04/15,20:10,0.550,0.809,0.528,0.989,0.695,0.340,0.583,0.555,�k,9.3,�L
2022/04/15,20:20,0.552,0.805,0.528,0.987,0.692,0.341,0.583,0.556,�k,7.5,�L
2022/04/15,20:30,0.550,0.806,0.528,0.989,0.690,0.341,0.583,0.557,�k,8.2,�L
2022/04/15,20:40,0.549,0.806,0.528,0.986,0.692,0.339,0.583,0.554,�k,7.7,�L
2022/04/15,20:50,0.552,0.805,0.528,0.988,0.691,0.342,0.583,0.555,�k,9.4,�L
2022/04/15,21:00,0.551,0.805,0.529,0.989,0.691,0.340,0.584,0.555,�k,8.8,�L
2022/04/15,21:10,0.549,0.806,0.528,0.987,0.689,0.338,0.583,0.556,�k,9.5,�L
2022/04/15,21:20,0.549,0.803,0.527,0.982,0.688,0.339,0.581,0.553,�k,9.6,�L
2022/04/15,21:30,0.548,0.802,0.526,0.984,0.688,0.339,0.582,0.554,�k,10.6,�L
2022/04/15,21:40,0.549,0.803,0.527,0.985,0.687,0.339,0.582,0.555,�k�k��,11.0,�L
2022/04/15,21:50,0.550,0.802,0.526,0.984,0.689,0.338,0.581,0.554,�k,11.7,�L
2022/04/15,22:00,0.548,0.802,0.526,0.985,0.688,0.339,0.582,0.556,�k,11.1,�L
2022/04/15,22:10,0.548,0.802,0.525,0.983,0.688,0.338,0.581,0.555,�k,7.8,�L
2022/04/15,22:20,0.546,0.800,0.525,0.980,0.686,0.338,0.581,0.555,�k,8.7,�L
2022/04/15,22:30,0.546,0.802,0.526,0.980,0.686,0.339,0.581,0.555,�k,9.5,�L
2022/04/15,22:40,0.547,0.802,0.526,0.981,0.687,0.339,0.582,0.553,�k,9.8,�L
2022/04/15,22:50,0.550,0.804,0.528,0.982,0.685,0.339,0.581,0.555,�k,8.1,�L
2022/04/15,23:00,0.550,0.803,0.528,0.982,0.685,0.341,0.580,0.553,�k,9.7,�L
2022/04/15,23:10,0.550,0.806,0.526,0.982,0.686,0.341,0.581,0.555,�k,10.6,�L
2022/04/15,23:20,0.549,0.804,0.526,0.979,0.686,0.340,0.582,0.553,�k�k��,8.8,�L
2022/04/15,23:30,0.548,0.802,0.526,0.980,0.686,0.341,0.580,0.554,�k,7.3,�L
2022/04/15,23:40,0.549,0.804,0.527,0.979,0.687,0.340,0.579,0.554,�k,8.4,�L
2022/04/15,23:50,0.551,0.802,0.527,0.981,0.688,0.341,0.579,0.555,�k,8.4,�L
